Wetterdaten: Mittwoch, 08.07.2026
Datum Zeit Außen Temp. Server Temp. +20m Feuchte Feuchte +20m Luftdruck Regen Wind Richtung Richtung Sonnenschein Helligkeit Solar Taupunkt
08.07.2026 00:00 17,4 °C 24,3 °C 17,5 °C 77 % 53 % 1012,3 hPa 0,00 l/m² 51,3 km/h (7 Bft) S-SW 195 ° 0 min 0 lux 0 W/m² 13,3 °C
08.07.2026 00:15 17,3 °C 24,3 °C 17,5 °C 77 % 53 % 1012,3 hPa 0,00 l/m² 51,3 km/h (7 Bft) S-SW 195 ° 0 min 0 lux 0 W/m² 13,2 °C
08.07.2026 00:30 17,3 °C 24,3 °C 17,5 °C 77 % 53 % 1012,3 hPa 0,00 l/m² 51,3 km/h (7 Bft) S-SW 195 ° 0 min 0 lux 0 W/m² 13,2 °C
08.07.2026 00:45 17,2 °C 24,3 °C 17,4 °C 77 % 54 % 1012,3 hPa 0,00 l/m² 51,3 km/h (7 Bft) S-SW 195 ° 0 min 0 lux 0 W/m² 13,1 °C
08.07.2026 01:00 17,2 °C 24,3 °C 17,4 °C 77 % 54 % 1012,3 hPa 0,00 l/m² 51,3 km/h (7 Bft) S-SW 195 ° 0 min 0 lux 0 W/m² 13,1 °C
08.07.2026 01:15 17,1 °C 24,3 °C 17,0 °C 77 % 55 % 1012,3 hPa 0,00 l/m² 51,3 km/h (7 Bft) S-SW 195 ° 0 min 0 lux 0 W/m² 13,0 °C
08.07.2026 01:30 16,7 °C 24,3 °C 16,4 °C 79 % 57 % 1012,3 hPa 0,00 l/m² 51,3 km/h (7 Bft) S-SW 195 ° 0 min 0 lux 0 W/m² 13,0 °C
08.07.2026 01:45 16,2 °C 24,3 °C 15,9 °C 82 % 69 % 1012,4 hPa 0,00 l/m² 51,3 km/h (7 Bft) S-SW 195 ° 0 min 0 lux 0 W/m² 13,1 °C
08.07.2026 02:00 15,9 °C 24,3 °C 15,7 °C 83 % 78 % 1012,4 hPa 0,00 l/m² 51,3 km/h (7 Bft) S-SW 195 ° 0 min 0 lux 0 W/m² 13,0 °C
08.07.2026 02:15 16,1 °C 24,3 °C 15,7 °C 82 % 68 % 1012,4 hPa 0,00 l/m² 51,3 km/h (7 Bft) S-SW 195 ° 0 min 0 lux 0 W/m² 13,0 °C
08.07.2026 02:30 16,1 °C 24,3 °C 15,8 °C 81 % 59 % 1012,4 hPa 0,00 l/m² 51,3 km/h (7 Bft) S-SW 195 ° 0 min 0 lux 0 W/m² 12,8 °C
08.07.2026 02:45 16,1 °C 24,3 °C 15,9 °C 81 % 56 % 1012,4 hPa 0,00 l/m² 51,3 km/h (7 Bft) S-SW 195 ° 0 min 0 lux 0 W/m² 12,8 °C
08.07.2026 03:00 15,9 °C 24,3 °C 15,6 °C 81 % 60 % 1012,4 hPa 0,00 l/m² 51,3 km/h (7 Bft) S-SW 195 ° 0 min 0 lux 0 W/m² 12,6 °C
08.07.2026 03:15 15,4 °C 24,3 °C 15,0 °C 83 % 83 % 1012,5 hPa 0,00 l/m² 51,3 km/h (7 Bft) S-SW 195 ° 0 min 0 lux 0 W/m² 12,5 °C
08.07.2026 03:30 15,1 °C 24,3 °C 14,5 °C 82 % 89 % 1012,5 hPa 0,00 l/m² 51,3 km/h (7 Bft) S-SW 195 ° 0 min 0 lux 0 W/m² 12,0 °C
08.07.2026 03:45 14,7 °C 24,3 °C 14,1 °C 81 % 92 % 1012,5 hPa 0,33 l/m² 51,3 km/h (7 Bft) S-SW 195 ° 0 min 0 lux 0 W/m² 11,5 °C
08.07.2026 04:00 14,4 °C 24,3 °C 13,3 °C 82 % 93 % 1013,6 hPa 0,11 l/m² 51,3 km/h (7 Bft) S-SW 195 ° 0 min 0 lux 0 W/m² 11,4 °C
08.07.2026 04:15 14,3 °C 24,3 °C 12,9 °C 82 % 95 % 1013,6 hPa 0,11 l/m² 51,3 km/h (7 Bft) S-SW 195 ° 0 min 0 lux 0 W/m² 11,3 °C
08.07.2026 04:30 14,2 °C 24,3 °C 12,5 °C 82 % 95 % 1013,6 hPa 0,11 l/m² 51,3 km/h (7 Bft) S-SW 195 ° 0 min 0 lux 0 W/m² 11,2 °C
08.07.2026 04:45 14,2 °C 24,3 °C 12,3 °C 82 % 95 % 1013,6 hPa 0,00 l/m² 51,3 km/h (7 Bft) S-SW 195 ° 0 min 0 lux 0 W/m² 11,2 °C
08.07.2026 05:00 14,1 °C 24,3 °C 12,1 °C 82 % 95 % 1013,6 hPa 0,11 l/m² 51,3 km/h (7 Bft) S-SW 195 ° 0 min 0 lux 0 W/m² 11,1 °C
08.07.2026 05:15 14,1 °C 24,3 °C 12,0 °C 82 % 95 % 1013,6 hPa 0,11 l/m² 51,3 km/h (7 Bft) S-SW 195 ° 0 min 76 lux 0 W/m² 11,1 °C
08.07.2026 05:30 14,0 °C 24,3 °C 11,6 °C 82 % 95 % 1013,6 hPa 0,11 l/m² 51,3 km/h (7 Bft) S-SW 195 ° 0 min 201 lux 1 W/m² 11,0 °C
08.07.2026 05:45 14,0 °C 24,3 °C 11,4 °C 82 % 95 % 1013,6 hPa 0,00 l/m² 51,3 km/h (7 Bft) S-SW 195 ° 0 min 474 lux 3 W/m² 11,0 °C
08.07.2026 06:00 14,1 °C 24,3 °C 11,2 °C 82 % 95 % 1013,6 hPa 0,00 l/m² 51,3 km/h (7 Bft) S-SW 195 ° 0 min 641 lux 4 W/m² 11,1 °C
08.07.2026 06:15 14,0 °C 24,3 °C 11,1 °C 82 % 95 % 1014,7 hPa 0,00 l/m² 51,3 km/h (7 Bft) S-SW 195 ° 0 min 1,42 klux 9 W/m² 11,0 °C
08.07.2026 06:30 14,1 °C 24,3 °C 11,0 °C 82 % 95 % 1014,7 hPa 0,00 l/m² 51,3 km/h (7 Bft) S-SW 195 ° 0 min 3,52 klux 23 W/m² 11,1 °C
08.07.2026 06:45 14,2 °C 24,3 °C 10,7 °C 82 % 95 % 1014,6 hPa 0,00 l/m² 51,3 km/h (7 Bft) S-SW 195 ° 0 min 3,77 klux 25 W/m² 11,2 °C
08.07.2026 07:00 14,2 °C 24,3 °C 10,9 °C 82 % 95 % 1014,6 hPa 0,00 l/m² 51,3 km/h (7 Bft) S-SW 195 ° 0 min 4,97 klux 32 W/m² 11,2 °C
08.07.2026 07:15 14,4 °C 24,3 °C 11,1 °C 83 % 95 % 1014,6 hPa 0,00 l/m² 51,3 km/h (7 Bft) S-SW 195 ° 0 min 4,44 klux 29 W/m² 11,5 °C
08.07.2026 07:30 14,7 °C 24,3 °C 11,6 °C 83 % 90 % 1014,6 hPa 0,00 l/m² 51,3 km/h (7 Bft) S-SW 195 ° 0 min 7,50 klux 49 W/m² 11,8 °C
08.07.2026 07:45 15,1 °C 24,3 °C 11,8 °C 84 % 88 % 1014,6 hPa 0,00 l/m² 51,3 km/h (7 Bft) S-SW 195 ° 0 min 14,1 klux 92 W/m² 12,4 °C
08.07.2026 08:00 15,5 °C 24,3 °C 12,4 °C 81 % 83 % 1014,5 hPa 0,00 l/m² 51,3 km/h (7 Bft) S-SW 195 ° 0 min 16,5 klux 107 W/m² 12,3 °C
08.07.2026 08:15 15,6 °C 24,3 °C 13,6 °C 80 % 62 % 1014,5 hPa 0,00 l/m² 51,3 km/h (7 Bft) S-SW 195 ° 0 min 15,3 klux 100 W/m² 12,2 °C
08.07.2026 08:30 15,5 °C 24,3 °C 14,5 °C 80 % 58 % 1015,5 hPa 0,00 l/m² 51,3 km/h (7 Bft) S-SW 195 ° 0 min 21,1 klux 137 W/m² 12,1 °C
08.07.2026 08:45 16,2 °C 24,3 °C 15,4 °C 77 % 52 % 1015,5 hPa 0,00 l/m² 51,3 km/h (7 Bft) S-SW 195 ° 0 min 29,1 klux 190 W/m² 12,2 °C
08.07.2026 09:00 15,9 °C 24,3 °C 15,7 °C 78 % 51 % 1015,5 hPa 0,00 l/m² 51,3 km/h (7 Bft) S-SW 195 ° 0 min 23,4 klux 152 W/m² 12,1 °C
08.07.2026 09:15 17,0 °C 24,3 °C 16,0 °C 73 % 49 % 1015,4 hPa 0,00 l/m² 51,3 km/h (7 Bft) S-SW 195 ° 15 min 49,0 klux 319 W/m² 12,1 °C
08.07.2026 09:30 18,6 °C 24,3 °C 17,0 °C 68 % 47 % 1015,2 hPa 0,00 l/m² 51,3 km/h (7 Bft) S-SW 195 ° 15 min 59,4 klux 387 W/m² 12,6 °C
08.07.2026 09:45 17,9 °C 24,3 °C 16,9 °C 66 % 44 % 1015,3 hPa 0,00 l/m² 51,3 km/h (7 Bft) S-SW 195 ° 0 min 21,4 klux 139 W/m² 11,5 °C
08.07.2026 10:00 17,0 °C 24,3 °C 17,1 °C 67 % 44 % 1015,4 hPa 0,00 l/m² 51,3 km/h (7 Bft) S-SW 195 ° 15 min 59,5 klux 388 W/m² 10,8 °C
08.07.2026 10:15 17,8 °C 24,3 °C 17,9 °C 66 % 43 % 1015,3 hPa 0,00 l/m² 51,3 km/h (7 Bft) S-SW 195 ° 15 min 68,6 klux 447 W/m² 11,4 °C
08.07.2026 10:30 18,4 °C 24,3 °C 18,2 °C 64 % 43 % 1015,2 hPa 0,00 l/m² 51,3 km/h (7 Bft) S-SW 195 ° 15 min 74,9 klux 488 W/m² 11,5 °C
08.07.2026 10:45 18,5 °C 24,3 °C 18,5 °C 63 % 42 % 1015,2 hPa 0,00 l/m² 51,3 km/h (7 Bft) S-SW 195 ° 15 min 73,6 klux 479 W/m² 11,3 °C
08.07.2026 11:00 18,5 °C 24,3 °C 18,9 °C 62 % 41 % 1015,2 hPa 0,00 l/m² 51,3 km/h (7 Bft) S-SW 195 ° 15 min 76,9 klux 501 W/m² 11,1 °C
08.07.2026 11:15 18,8 °C 24,3 °C 19,0 °C 61 % 41 % 1015,2 hPa 0,00 l/m² 51,3 km/h (7 Bft) S-SW 195 ° 15 min 83,1 klux 541 W/m² 11,1 °C
08.07.2026 11:30 19,1 °C 24,3 °C 19,0 °C 59 % 40 % 1015,2 hPa 0,00 l/m² 51,3 km/h (7 Bft) S-SW 195 ° 15 min 87,5 klux 570 W/m² 10,9 °C
08.07.2026 11:45 19,7 °C 24,3 °C 19,9 °C 57 % 39 % 1015,1 hPa 0,00 l/m² 51,3 km/h (7 Bft) S-SW 195 ° 15 min 86,5 klux 563 W/m² 10,9 °C
08.07.2026 12:00 19,8 °C 24,3 °C 19,8 °C 58 % 40 % 1015,1 hPa 0,00 l/m² 51,3 km/h (7 Bft) S-SW 195 ° 15 min 90,1 klux 587 W/m² 11,3 °C
08.07.2026 12:09 19,9 °C 24,3 °C 19,9 °C 53 % 37 % 1015,1 hPa 0,00 l/m² 51,3 km/h (7 Bft) S-SW 195 ° 9 min 82,5 klux 537 W/m² 10,0 °C
08.07.2026 12:24 20,5 °C 24,3 °C 20,3 °C 53 % 36 % 1015,0 hPa 0,00 l/m² 51,3 km/h (7 Bft) S-SW 195 ° 15 min 89,3 klux 582 W/m² 10,6 °C
08.07.2026 12:39 20,9 °C 24,3 °C 21,1 °C 52 % 36 % 1015,0 hPa 0,00 l/m² 51,3 km/h (7 Bft) S-SW 195 ° 15 min 94,3 klux 614 W/m² 10,7 °C
08.07.2026 12:54 20,8 °C 24,3 °C 20,7 °C 51 % 36 % 1015,0 hPa 0,00 l/m² 51,3 km/h (7 Bft) S-SW 195 ° 15 min 89,8 klux 585 W/m² 10,3 °C
08.07.2026 13:09 20,8 °C 24,3 °C 20,9 °C 52 % 37 % 1015,0 hPa 0,00 l/m² 51,3 km/h (7 Bft) S-SW 195 ° 15 min 88,4 klux 576 W/m² 10,6 °C
08.07.2026 13:24 21,5 °C 24,3 °C 21,8 °C 49 % 35 % 1014,9 hPa 0,00 l/m² 51,3 km/h (7 Bft) S-SW 195 ° 15 min 86,8 klux 565 W/m² 10,3 °C
08.07.2026 13:39 22,1 °C 24,3 °C 22,0 °C 46 % 33 % 1014,9 hPa 0,00 l/m² 51,3 km/h (7 Bft) S-SW 195 ° 15 min 86,7 klux 565 W/m² 9,9 °C
08.07.2026 13:54 22,2 °C 24,3 °C 21,9 °C 46 % 32 % 1014,9 hPa 0,00 l/m² 51,3 km/h (7 Bft) S-SW 195 ° 15 min 85,1 klux 554 W/m² 10,0 °C
08.07.2026 14:09 22,5 °C 24,3 °C 22,2 °C 43 % 30 % 1014,8 hPa 0,00 l/m² 51,3 km/h (7 Bft) S-SW 195 ° 15 min 84,4 klux 550 W/m² 9,3 °C
08.07.2026 14:24 22,3 °C 24,3 °C 21,9 °C 44 % 31 % 1014,9 hPa 0,00 l/m² 51,3 km/h (7 Bft) S-SW 195 ° 15 min 81,5 klux 531 W/m² 9,5 °C
08.07.2026 14:39 22,5 °C 24,3 °C 22,3 °C 45 % 30 % 1014,8 hPa 0,00 l/m² 51,3 km/h (7 Bft) S-SW 195 ° 15 min 82,4 klux 537 W/m² 10,0 °C
08.07.2026 14:54 22,9 °C 24,3 °C 22,3 °C 45 % 29 % 1014,8 hPa 0,00 l/m² 51,3 km/h (7 Bft) S-SW 195 ° 15 min 82,7 klux 539 W/m² 10,3 °C
08.07.2026 15:09 23,3 °C 24,3 °C 22,9 °C 43 % 28 % 1014,8 hPa 0,00 l/m² 51,3 km/h (7 Bft) S-SW 195 ° 15 min 90,1 klux 587 W/m² 10,0 °C
08.07.2026 15:24 23,4 °C 24,3 °C 23,1 °C 43 % 28 % 1014,7 hPa 0,00 l/m² 51,3 km/h (7 Bft) S-SW 195 ° 15 min 82,3 klux 536 W/m² 10,1 °C
08.07.2026 15:39 23,4 °C 24,3 °C 23,0 °C 43 % 27 % 1014,7 hPa 0,00 l/m² 51,3 km/h (7 Bft) S-SW 195 ° 15 min 82,5 klux 537 W/m² 10,1 °C
08.07.2026 15:54 23,6 °C 24,3 °C 23,6 °C 43 % 25 % 1014,7 hPa 0,00 l/m² 51,3 km/h (7 Bft) S-SW 195 ° 15 min 77,7 klux 506 W/m² 10,3 °C
08.07.2026 16:09 23,6 °C 24,3 °C 23,1 °C 42 % 25 % 1014,7 hPa 0,00 l/m² 51,3 km/h (7 Bft) S-SW 195 ° 15 min 76,7 klux 500 W/m² 9,9 °C
08.07.2026 16:24 23,3 °C 24,3 °C 23,5 °C 44 % 24 % 1014,8 hPa 0,00 l/m² 51,3 km/h (7 Bft) S-SW 195 ° 15 min 71,1 klux 463 W/m² 10,4 °C
08.07.2026 16:39 23,6 °C 24,3 °C 23,2 °C 41 % 21 % 1014,7 hPa 0,00 l/m² 51,3 km/h (7 Bft) S-SW 195 ° 15 min 67,4 klux 439 W/m² 9,6 °C
08.07.2026 16:54 23,7 °C 24,3 °C 23,5 °C 42 % 21 % 1014,7 hPa 0,00 l/m² 51,3 km/h (7 Bft) S-SW 195 ° 15 min 65,8 klux 429 W/m² 10,0 °C
08.07.2026 17:09 23,6 °C 24,3 °C 23,4 °C 42 % 21 % 1014,7 hPa 0,00 l/m² 51,3 km/h (7 Bft) S-SW 195 ° 15 min 62,0 klux 404 W/m² 9,9 °C
08.07.2026 17:24 23,5 °C 24,3 °C 23,4 °C 43 % 21 % 1014,7 hPa 0,00 l/m² 51,3 km/h (7 Bft) S-SW 195 ° 15 min 60,1 klux 392 W/m² 10,2 °C
08.07.2026 17:45 23,7 °C 24,3 °C 23,4 °C 42 % 21 % 1014,7 hPa 0,00 l/m² 51,3 km/h (7 Bft) S-SW 195 ° 15 min 57,3 klux 373 W/m² 10,0 °C
08.07.2026 18:00 23,5 °C 24,3 °C 23,4 °C 43 % 21 % 1014,7 hPa 0,00 l/m² 51,3 km/h (7 Bft) S-SW 195 ° 15 min 55,0 klux 358 W/m² 10,2 °C
08.07.2026 18:15 23,8 °C 24,3 °C 23,9 °C 43 % 24 % 1014,7 hPa 0,00 l/m² 51,3 km/h (7 Bft) S-SW 195 ° 15 min 52,5 klux 342 W/m² 10,5 °C
08.07.2026 18:30 23,6 °C 24,3 °C 23,3 °C 44 % 24 % 1014,7 hPa 0,00 l/m² 51,3 km/h (7 Bft) S-SW 195 ° 15 min 46,9 klux 306 W/m² 10,6 °C
08.07.2026 18:45 25,7 °C 24,3 °C 24,5 °C 40 % 15 % 1014,5 hPa 0,00 l/m² 51,3 km/h (7 Bft) S-SW 195 ° 15 min 42,0 klux 274 W/m² 11,1 °C
08.07.2026 19:00 23,1 °C 24,3 °C 23,4 °C 45 % 22 % 1014,8 hPa 0,00 l/m² 51,3 km/h (7 Bft) S-SW 195 ° 15 min 40,3 klux 263 W/m² 10,5 °C
08.07.2026 19:15 25,1 °C 24,3 °C 25,0 °C 44 % 25 % 1014,6 hPa 0,00 l/m² 51,3 km/h (7 Bft) S-SW 195 ° 15 min 37,7 klux 246 W/m² 12,0 °C
08.07.2026 19:30 25,9 °C 24,3 °C 24,8 °C 41 % 23 % 1014,5 hPa 0,00 l/m² 51,3 km/h (7 Bft) S-SW 195 ° 15 min 33,8 klux 220 W/m² 11,6 °C
08.07.2026 19:45 26,1 °C 24,3 °C 24,3 °C 42 % 25 % 1014,5 hPa 0,00 l/m² 51,3 km/h (7 Bft) S-SW 195 ° 15 min 29,2 klux 190 W/m² 12,2 °C
08.07.2026 20:00 26,1 °C 24,3 °C 24,6 °C 41 % 25 % 1014,5 hPa 0,00 l/m² 51,3 km/h (7 Bft) S-SW 195 ° 15 min 26,1 klux 170 W/m² 11,8 °C
08.07.2026 20:15 25,8 °C 24,3 °C 24,6 °C 42 % 26 % 1014,5 hPa 0,00 l/m² 51,3 km/h (7 Bft) S-SW 195 ° 15 min 21,8 klux 142 W/m² 11,9 °C
08.07.2026 20:30 24,8 °C 24,3 °C 23,9 °C 44 % 29 % 1014,6 hPa 0,00 l/m² 51,3 km/h (7 Bft) S-SW 195 ° 15 min 12,4 klux 81 W/m² 11,7 °C
08.07.2026 20:45 22,3 °C 24,3 °C 23,9 °C 51 % 32 % 1014,9 hPa 0,00 l/m² 51,3 km/h (7 Bft) S-SW 195 ° 15 min 9,9 klux 64 W/m² 11,7 °C
08.07.2026 21:00 20,8 °C 24,3 °C 22,9 °C 60 % 40 % 1015,0 hPa 0,00 l/m² 51,3 km/h (7 Bft) S-SW 195 ° 15 min 9,9 klux 64 W/m² 12,7 °C
08.07.2026 21:15 20,2 °C 24,3 °C 21,9 °C 62 % 41 % 1015,1 hPa 0,00 l/m² 51,3 km/h (7 Bft) S-SW 195 ° 15 min 6,41 klux 42 W/m² 12,7 °C
08.07.2026 21:30 19,8 °C 24,3 °C 20,2 °C 65 % 45 % 1016,1 hPa 0,00 l/m² 51,3 km/h (7 Bft) S-SW 195 ° 0 min 2,55 klux 17 W/m² 13,0 °C
08.07.2026 21:45 19,3 °C 24,3 °C 19,6 °C 67 % 46 % 1016,2 hPa 0,00 l/m² 51,3 km/h (7 Bft) S-SW 195 ° 0 min 689 lux 0 W/m² 13,0 °C
08.07.2026 22:00 19,0 °C 24,3 °C 19,4 °C 69 % 47 % 1016,2 hPa 0,00 l/m² 51,3 km/h (7 Bft) S-SW 195 ° 0 min 253 lux 0 W/m² 13,2 °C
08.07.2026 22:15 18,7 °C 24,3 °C 19,0 °C 70 % 48 % 1016,2 hPa 0,00 l/m² 51,3 km/h (7 Bft) S-SW 195 ° 0 min 55 lux 0 W/m² 13,1 °C
08.07.2026 22:30 18,4 °C 24,3 °C 18,8 °C 72 % 49 % 1016,3 hPa 0,00 l/m² 51,3 km/h (7 Bft) S-SW 195 ° 0 min 5 lux 0 W/m² 13,3 °C
08.07.2026 22:45 18,2 °C 24,3 °C 18,5 °C 72 % 49 % 1016,3 hPa 0,00 l/m² 51,3 km/h (7 Bft) S-SW 195 ° 0 min 0 lux 0 W/m² 13,1 °C
08.07.2026 23:00 17,9 °C 24,3 °C 18,2 °C 73 % 51 % 1016,3 hPa 0,00 l/m² 51,3 km/h (7 Bft) S-SW 195 ° 0 min 0 lux 0 W/m² 13,0 °C
08.07.2026 23:15 17,7 °C 24,3 °C 17,9 °C 74 % 51 % 1016,3 hPa 0,00 l/m² 51,3 km/h (7 Bft) S-SW 195 ° 0 min 0 lux 0 W/m² 13,0 °C
08.07.2026 23:30 17,4 °C 24,3 °C 17,6 °C 76 % 52 % 1016,4 hPa 0,00 l/m² 51,3 km/h (7 Bft) S-SW 195 ° 0 min 0 lux 0 W/m² 13,1 °C
08.07.2026 23:45 17,1 °C 24,3 °C 17,1 °C 76 % 54 % 1017,4 hPa 0,00 l/m² 51,3 km/h (7 Bft) S-SW 195 ° 0 min 0 lux 0 W/m² 12,8 °C
_ Min-Zeit 05:30 00:00 06:45 18:45 18:45 00:00 - 00:00 - - - - - 14:09
Minimum _ 14,0 °C 24,3 °C 10,7 °C 40 % 15 % 1012,3 hPa - 51,3 km/h (7 Bft) - - - - - 9,3 °C
_ Max-Zeit 19:45 00:00 19:15 07:45 04:15 23:45 03:45 00:00 - - 09:15 12:39 12:39 00:00
Maximum _ 26,1 °C 24,3 °C 25,0 °C 84 % 95 % 1017,4 hPa 0,33 l/m² 51,3 km/h
S-SW (7 Bft)
- - 15 min 94,3 klux 614 W/m² 13,3 °C
Durchschnitt _ 19,1 °C 24,3 °C 18,5 °C 64 % 51 % 1014,5 hPa #0,99 l/m² 51,3 km/h (7 Bft) S-SW - #11:54 h 33,6 klux 323 W/m² 11,5 °C